Change the Weather History Date:

Wednesday, March 6, 2013

  Actual Average Record
Temperature  
Mean Temperature 52 °F -  
Max Temperature 57 °F 45 °F 57 °F (2013)
Min Temperature 46 °F 37 °F 30 °F (2005)
Degree Days  
Heating Degree Days 14    
Growing Degree Days 2 (Base 50)    
Moisture  
Dew Point 41 °F    
Average Humidity 71    
Maximum Humidity 87    
Minimum Humidity 55    
Precipitation  
Precipitation 0.00 in - - ()
Sea Level Pressure  
Sea Level Pressure 29.54 in    
Wind  
Wind Speed 4 mph ()    
Max Wind Speed 8 mph    
Max Gust Speed -    
Visibility 4.7 miles    
Events Rain    
Averages and records for this station are not official NWS values.
T = Trace of Precipitation, MM = Missing Value Source: Averaged Metar Reports

Daily Weather History Graph

Daily Weather History Graph

Search for Another Location

Airport or City:

Trip Planner

Search our weather history database for the weather conditions in past years. The results will help you decide how hot, cold, wet, or windy it might be!

Date:

Astronomy

Mar. 06, 2013 Rise Set
Actual Time 6:33 AM GMT 5:49 PM GMT
Civil Twilight 6:00 AM GMT 6:22 PM GMT
Nautical Twilight 5:22 AM GMT 7:01 PM GMT
Astronomical Twilight 4:43 AM GMT 7:40 PM GMT
Moon 2:59 AM GMT (3/6) 11:45 AM GMT (3/6)
Length of Visible Light 12h 21m
Length of Day
11h 15m
Waning Crescent, 32% of the Moon is Illuminated
Mar 6
Waning Crescent
Mar 11
New
Mar 19
First Quarter
Mar 27
Full
Apr 3
Last Quarter

Hourly Weather History & Observations

Time (GMT) Temp. Windchill Dew Point Humidity Pressure Visibility Wind Dir Wind Speed Gust Speed Precip Events Conditions
6:50 AM 46.4 °F 43.5 °F 39.2 °F 76% 29.53 in 3.7 mi SE 5.8 mph - N/A   Scattered Clouds
7:20 AM 46.4 °F 45.2 °F 39.2 °F 76% 29.56 in 5.0 mi ESE 3.5 mph - N/A   Scattered Clouds
7:50 AM 46.4 °F - 39.2 °F 76% 29.56 in 5.0 mi ENE 2.3 mph - N/A   Scattered Clouds
8:20 AM 46.4 °F - 39.2 °F 76% 29.56 in 5.0 mi East 1.2 mph - N/A   Scattered Clouds
8:50 AM 46.4 °F - 41.0 °F 81% 29.56 in 5.0 mi East 2.3 mph - N/A   Scattered Clouds
9:20 AM 46.4 °F 45.2 °F 41.0 °F 81% 29.56 in 5.0 mi ENE 3.5 mph - N/A   Unknown
9:50 AM 48.2 °F - 42.8 °F 82% 29.56 in 5.0 mi East 3.5 mph - N/A   Unknown
10:20 AM 50.0 °F - 42.8 °F 76% 29.56 in 5.0 mi ENE 5.8 mph - N/A   Unknown
10:50 AM 51.8 °F - 42.8 °F 71% 29.56 in 5.0 mi East 5.8 mph - N/A   Unknown
11:20 AM 53.6 °F - 41.0 °F 62% 29.56 in 5.0 mi East 6.9 mph - N/A   Unknown
11:50 AM 55.4 °F - 42.8 °F 63% 29.56 in 5.0 mi East 5.8 mph - N/A   Unknown
12:20 PM 57.2 °F - 41.0 °F 55% 29.53 in 5.6 mi SE 5.8 mph - N/A   Unknown
12:50 PM 55.4 °F - 41.0 °F 58% 29.53 in 5.6 mi ESE 6.9 mph - N/A   Unknown
1:20 PM 55.4 °F - 41.0 °F 58% 29.53 in 5.6 mi ESE 5.8 mph - N/A   Unknown
1:50 PM 55.4 °F - 41.0 °F 58% 29.53 in 5.6 mi SE 5.8 mph - N/A   Unknown
2:20 PM 55.4 °F - 41.0 °F 58% 29.53 in 5.6 mi East 4.6 mph - N/A   Unknown
2:50 PM 55.4 °F - 42.8 °F 63% 29.53 in 5.6 mi East 5.8 mph - N/A   Unknown
3:20 PM 55.4 °F - 44.6 °F 67% 29.53 in 3.7 mi East 4.6 mph - N/A   Unknown
3:50 PM 55.4 °F - 44.6 °F 67% 29.53 in 5.0 mi ENE 6.9 mph - N/A   Unknown
4:20 PM 51.8 °F - 42.8 °F 71% 29.53 in 5.0 mi ENE 6.9 mph - N/A   Unknown
4:50 PM 51.8 °F - 42.8 °F 71% 29.53 in 5.0 mi ENE 6.9 mph - N/A   Unknown
5:20 PM 50.0 °F - 41.0 °F 71% 29.53 in 4.3 mi ENE 8.1 mph - N/A   Unknown
5:50 PM 50.0 °F - 39.2 °F 66% 29.53 in 3.7 mi ENE 6.9 mph - N/A   Unknown
6:20 PM 48.2 °F - 39.2 °F 71% 29.53 in 3.7 mi East 5.8 mph - N/A   Unknown
6:50 PM 48.2 °F - 41.0 °F 76% 29.53 in 3.7 mi ENE 5.8 mph - N/A   Unknown
7:20 PM 46.4 °F 42.9 °F 41.0 °F 81% 29.53 in 3.7 mi East 6.9 mph - N/A Rain Light Rain
7:50 PM 46.4 °F 43.5 °F 41.0 °F 81% 29.53 in 3.7 mi ENE 5.8 mph - N/A Rain Light Rain
8:20 PM 46.4 °F 44.3 °F 42.8 °F 87% 29.53 in 3.7 mi ENE 4.6 mph - N/A Rain Light Rain